This demonstration page uses our WeatherBlox Daily Observations layout. Learn more.

Left ArrowRight Arrow

44.89941, -97.11507

Hourly Observations for January 22, 2016

Temp ( °F °C ) Dew Point ( °F °C ) Humidity (%) Winds ( mph kmh ) Pressure ( in mb ) Visibility ( mi km ) Precip ( " mm )
12:53 am 00:53 Cloudy 9 -12.8 4 -15.6 80 80 NNW 6 9 30.47 1032 10 16 0.00 0.00
1:53 am 01:53 Partly Cloudy 7 -13.9 3 -16.1 84 84 Calm 30.48 1032 10 16 0.00 0.00
2:53 am 02:53 Clear 4 -15.6 0 -17.8 83 83 N 5 7 30.49 1032 10 16 0.00 0.00
3:53 am 03:53 Mostly Cloudy 8 -13.3 3 -16.1 80 80 N 5 7 30.48 1032 10 16 0.00 0.00
4:53 am 04:53 Mostly Clear 5 -15 1 -17.2 83 83 NNW 5 7 30.49 1032 10 16 0.00 0.00
5:53 am 05:53 Clear 2 -16.7 -2 -18.9 83 83 N 6 9 30.48 1032 10 16 0.00 0.00
6:08 am 06:08 Partly Cloudy 2 -16.7 -2 -18.9 83 83 N 7 11 30.62 1037 10 16 0.00 0.00
6:34 am 06:34 Mostly Cloudy 2 -16.7 -3 -19.4 80 80 N 3 6 30.62 1037 10 16 0.00 0.00
6:53 am 06:53 Cloudy 1 -17.2 -2 -18.9 87 87 NE 3 6 30.50 1033 10 16 0.00 0.00
7:53 am 07:53 Cloudy 4 -15.6 -1 -18.3 80 80 NNE 3 6 30.51 1033 10 16 0.00 0.00
8:53 am 08:53 Cloudy with Haze 9 -12.8 4 -15.6 80 80 NNE 8 13 30.51 1033 4 6 0.00 0.03
9:12 am 09:12 Cloudy with Light Snow 9 -12.8 4 -15.6 80 80 NNE 6 9 30.56 1035 3 4 0.00 0.03
9:32 am 09:32 Cloudy with Haze 9 -12.8 4 -15.6 80 80 NE 6 9 30.56 1035 4 6 0.00 0.03
9:53 am 09:53 Cloudy with Haze 9 -12.8 4 -15.6 80 80 ENE 5 7 30.50 1033 3 5 0.00 0.03
10:53 am 10:53 Mostly Cloudy 11 -11.7 5 -15 77 77 ENE 7 11 30.49 1033 10 16 0.00 0.00
11:05 am 11:05 Mostly Sunny 12 -11.1 6 -14.4 77 77 ESE 6 9 30.56 1035 10 16 0.00 0.00
11:25 am 11:25 Mostly Cloudy 12 -11.1 7 -13.9 80 80 Calm 30.56 1035 10 16 0.00 0.00
11:53 am 11:53 Cloudy with Haze 12 -11.1 6 -14.4 77 77 Calm 30.49 1033 6 10 0.00 0.00
12:15 pm 12:15 Cloudy 11 -11.7 7 -13.9 84 84 Calm 30.53 1034 9 14 0.00 0.00
12:53 pm 12:53 Mostly Cloudy 12 -11.1 6 -14.4 77 77 SE 6 9 30.46 1032 9 14 0.00 0.00
1:10 pm 13:10 Partly Cloudy 12 -11.1 6 -14.4 77 77 SSE 8 13 30.50 1033 10 16 0.00 0.00
1:53 pm 13:53 Sunny 13 -10.6 7 -13.9 77 77 S 9 15 30.44 1031 10 16 0.00 0.00
2:53 pm 14:53 Sunny 12 -11.1 6 -14.4 77 77 S 8 13 30.43 1030 10 16 0.00 0.00
3:04 pm 15:04 Partly Cloudy 12 -11.1 6 -14.4 77 77 S 8 13 30.48 1032 8 13 0.00 0.00
3:53 pm 15:53 Sunny 12 -11.1 5 -15 73 73 S 12 19 30.40 1030 10 16 0.00 0.00
4:53 pm 16:53 Sunny 10 -12.2 4 -15.6 76 76 SSE 9 15 30.39 1029 10 16 0.00 0.00
5:53 pm 17:53 Clear 8 -13.3 2 -16.7 76 76 S 9 15 30.38 1029 10 16 0.00 0.00
6:53 pm 18:53 Clear 6 -14.4 1 -17.2 79 79 S 9 15 30.37 1029 10 16 0.00 0.00
7:53 pm 19:53 Clear 6 -14.4 2 -16.7 83 83 S 12 19 30.36 1028 10 16 0.00 0.00
8:35 pm 20:35 Partly Cloudy 6 -14.4 2 -16.7 83 83 SSE 12 19 30.39 1029 8 13 0.00 0.00
8:39 pm 20:39 Mostly Cloudy 7 -13.9 2 -16.7 80 80 SSE 12 19 30.39 1029 8 13 0.00 0.00
8:53 pm 20:53 Cloudy with Light Snow 7 -13.9 3 -16.1 84 84 S 16 26 30.33 1027 5 8 0.00 0.03
9:01 pm 21:01 Cloudy with Light Snow 8 -13.3 4 -15.6 83 83 S 14 22 30.39 1029 2 3 0.00 0.03
9:13 pm 21:13 Cloudy with Light Snow 7 -13.9 4 -15.6 87 87 S 15 24 30.39 1029 3 5 0.00 0.03
9:53 pm 21:53 Mostly Cloudy with Light Snow 7 -13.9 3 -16.1 84 84 SSW 10 17 30.32 1027 5 8 0.00 0.03
9:59 pm 21:59 Partly Cloudy 7 -13.9 2 -16.7 80 80 S 8 13 30.39 1029 8 13 0.00 0.03
10:53 pm 22:53 Clear 7 -13.9 2 -16.7 80 80 S 12 19 30.29 1026 9 14 0.00 0.03
11:49 pm 23:49 Partly Cloudy 9 -13 3 -16 78 78 S 17 28 30.33 1027 9 14 0.00 0.00
11:53 pm 23:53 Partly Cloudy 8 -13.3 4 -15.6 83 83 S 17 28 30.26 1025 9 14 0.00 0.00

Powered by AerisWeather